SCP
3 4 4 5 4 4 3 3 2 2 2 2 2 2 2 2 2 2 2 2 2 2 2 2 1 1 2 2 2 2 2 2 2 2 2 2 2 2 1 1 1 1 1
4 4 4 4 4 3 3 3 2 2 2 2 2 2 2 2 2 2 2 2 2 2 1 1 1 1 2 2 2 2 2 2 2 2 2 2 2 1 1 1 1 1 1
4 4 4 4 4 3 3 3 2 2 2 2 2 2 2 2 2 2 2 2 2 2 2 1 1 2 2 2 2 2 2 2 2 2 2 2 2 1 1 1 1 1 1
5 5 5 4 4 4 3 3 2 2 2 2 2 2 2 2 2 2 2 2 2 2 2 2 1 1 1 1 1 1 2 2 2 2 2 2 1 1 1 1 1 1 1
7 6 5 4 4 4 3 3 2 2 2 2 2 2 2 2 2 3 2 2 2 2 2 2 1 1 1 1 1 1 2 2 2 1 1 1 1 1 1 1 1 1 1
7 6 5 4 3 4 3 3 3 3 2 2 2 2 2 2 3 3 3 2 2 2 2 2 2 1 1 1 1 1 1 1 1 1 1 1 1 1 1 1 1 1 1
6 5 4 4 4 3 3 3 3 2 2 2 2 2 2 2 3 3 2 2 2 2 2 2 2 1 1 1 1 1 1 1 1 1 1 1 1 1 1 1 1 1 1
5 4 4 4 3 3 3 3 2 2 2 2 2 1 1 2 2 2 2 2 2 2 1 1 1 1 1 1 1 1 1 1 1 1 1 1 1 1 1 1 1 1 1
5 4 4 3 3 3 3 2 2 2 2 2 2 2 1 1 2 2 2 2 2 1 1 1 1 1 1 1 1 1 1 1 1 1 1 1 1 1 1 1 1 1 1
5 4 3 3 3 3 3 2 2 2 2 2 2 2 2 1 1 2 2 2 1 1 1 1 1 1 1 1 1 1 1 1 1 1 1 1 1 1 1 1 1 1 1
4 3 3 3 3 3 2 2 2 2 1 1 1 1 1 2 2 2 1 1 1 1 1 2 2 2 1 1 1 0 0 0 0 0 0 1 1 1 1 1 1 1 1
3 3 3 3 3 2 2 2 2 2 1 1 1 1 2 2 2 1 1 1 1 1 1 1 1 1 1 1 1 0 0 0 0 0 0 0 0 1 1 1 1 1 0
3 3 3 3 3 2 2 2 2 2 1 1 1 1 2 2 2 1 1 1 1 1 1 1 0 0 0 0 0 0 0 0 0 0 0 0 0 0 1 1 1 0 0
4 4 3 3 3 3 2 2 2 2 1 1 1 1 1 1 1 1 1 1 0 0 0 0 0 0 0 0 0 0 0 0 0 0 0 0 0 0 0 0 1 0 0
6 5 4 4 3 3 2 2 2 2 1 1 1 1 1 1 1 1 1 1 0 0 0 0 0 0 0 0 0 0 0 0 0 0 0 0 0 0 0 0 0 0 0
6 5 4 4 3 2 2 2 1 1 1 1 0 0 0 0 1 1 1 1 0 0 0 1 1 0 0 0 0 0 0 0 0 0 0 0 0 0 0 0 0 0 0
5 4 4 3 3 2 2 2 1 1 1 1 0 0 0 0 0 1 1 1 0 0 0 1 1 0 0 0 0 0 0 0 0 0 0 0 0 0 0 0 0 0 0
2 3 3 3 2 2 2 1 1 1 0 0 0 0 0 0 0 0 0 0 0 0 0 1 1 0 0 0 0 0 0 0 0 0 0 0 0 0 0 0 0 0 0
1 2 3 3 2 1 1 1 1 1 0 0 0 0 0 0 0 0 0 0 0 0 0 0 0 0 0 0 0 0 0 0 0 0 0 0 0 0 0 0 0 0 0
1 1 2 2 1 1 1 1 1 1 0 0 0 0 0 0 0 0 0 0 0 0 0 0 0 0 0 0 0 0 0 0 0 0 0 0 0 0 0 0 0 0 0
1 1 1 1 1 0 0 0 0 1 1 0 0 0 0 0 0 0 0 0 0 0 0 0 0 0 0 0 0 0 0 0 0 0 0 0 0 0 0 0 0 0 0
0 0 0 0 0 0 0 0 0 0 1 1 0 0 0 0 0 0 0 0 0 0 0 0 0 0 0 0 0 0 0 0 0 0 0 0 0 0 0 0 0 0 0
0 0 0 0 0 0 0 0 0 0 0 0 0 0 0 0 0 0 0 0 0 0 0 0 0 0 0 0 0 0 0 0 0 0 0 0 0 0 0 0 0 0 0
1 1 1 0 0 0 0 0 0 0 0 0 1 1 1 1 0 0 0 0 0 0 0 0 0 0 0 0 0 0 0 0 0 0 0 0 0 0 0 0 0 0 0
1 1 1 1 1 0 0 0 0 0 0 1 1 1 1 1 0 0 0 0 0 0 0 0 0 0 0 0 0 0 0 0 0 0 0 0 0 0 0 0 0 0 0
1 1 1 1 1 0 0 0 0 0 0 1 1 1 0 0 0 0 0 0 0 0 0 0 0 0 0 0 0 0 0 0 0 0 0 0 0 0 0 0 0 0 0
Wind_Speed
1 1 1 1 2 1 1 2 3 3 3 4 4 4 3 2 2 1 1 4 4 4 5 5 5 5 6 7 8 9 9 9 10 9 9 9 10 10 9 9 10 10 10
1 2 2 1 1 2 2 2 3 3 2 2 3 3 3 3 2 2 1 1 3 3 4 4 4 5 5 6 7 7 7 7 8 8 9 9 9 9 9 9 9 10 10
2 2 2 1 2 2 2 2 3 2 3 3 3 3 2 2 2 2 1 1 1 2 2 4 4 4 4 5 6 6 6 6 7 8 9 9 9 8 8 8 9 8 9
2 2 2 2 2 2 2 2 1 2 2 2 2 3 2 1 2 2 1 1 0 1 2 3 3 3 3 4 5 5 6 6 7 8 8 8 8 8 8 9 8 8 9
2 2 1 2 3 2 2 3 2 2 3 3 3 3 2 2 2 2 1 1 0 1 2 3 3 2 2 3 4 4 4 5 4 6 7 7 7 8 8 9 9 9 9
2 2 1 2 3 2 2 3 3 3 2 2 4 3 2 2 1 0 2 1 1 0 1 1 2 2 2 2 2 3 3 3 3 4 5 6 5 5 5 7 8 8 8
3 2 2 2 2 1 2 2 2 4 3 2 2 3 3 2 1 1 0 1 1 0 1 1 0 1 1 2 1 2 1 2 3 3 3 3 4 4 5 6 7 8 9
2 3 2 2 3 2 2 2 2 2 3 2 1 2 2 1 1 1 1 1 0 1 1 0 1 1 1 1 2 2 2 1 1 2 2 1 2 3 5 6 7 7 8
2 2 2 3 3 3 2 3 2 3 2 3 2 1 2 1 2 1 1 0 1 0 0 0 1 0 1 1 1 3 3 2 1 1 1 1 1 2 3 4 6 7 7
1 2 2 3 3 3 3 3 3 3 3 3 2 1 1 1 1 1 1 1 1 1 2 1 0 1 2 1 2 4 3 2 1 1 1 0 1 1 2 2 3 5 6
0 1 1 2 3 2 3 3 3 3 2 3 3 2 2 2 2 1 2 2 1 1 1 1 0 1 1 1 1 3 3 2 2 2 1 1 1 1 1 2 3 4 5
0 1 1 2 3 2 3 3 3 3 2 3 3 2 2 2 2 1 2 2 1 1 1 1 1 1 1 1 2 4 3 3 2 2 1 1 0 1 1 2 3 3 4
0 2 2 2 2 3 3 2 3 3 3 3 3 2 2 2 2 2 1 2 1 1 1 1 1 1 1 2 2 3 2 3 3 2 2 2 2 1 1 2 2 2 2
1 1 2 2 3 3 3 3 3 2 2 3 4 3 2 2 1 1 1 1 1 2 1 2 0 0 1 2 2 2 2 3 3 3 3 3 3 3 2 1 1 1 2
1 1 1 2 2 3 3 3 2 2 2 3 3 3 2 2 1 2 1 2 2 2 2 1 1 1 1 1 2 2 2 4 4 4 4 4 4 3 2 2 1 1 2
2 1 2 2 2 2 2 2 2 2 2 3 2 2 2 2 1 2 2 2 2 2 2 1 1 1 1 1 3 2 2 5 5 5 4 4 5 4 4 3 2 2 1
1 1 1 2 2 2 2 2 2 2 3 3 3 3 2 2 1 2 1 1 1 1 1 1 1 1 1 2 2 3 3 3 3 5 5 5 5 5 5 4 3 3 2
1 1 1 2 2 2 2 3 3 3 3 3 3 3 3 2 2 2 2 2 1 1 1 1 1 1 2 3 3 3 3 3 3 6 6 6 6 6 6 5 4 4 3
1 1 1 2 2 2 3 3 3 3 3 3 3 3 2 2 2 2 2 2 2 1 1 1 2 1 2 3 2 3 3 2 3 5 7 7 7 7 7 6 5 5 4
1 1 1 2 2 3 3 3 4 3 3 3 3 2 2 2 2 2 2 2 2 1 1 1 2 1 2 2 2 2 2 2 2 3 4 5 6 7 7 7 7 6 6
1 1 1 2 2 2 4 5 4 4 3 3 3 3 2 2 2 2 2 3 3 2 1 1 1 1 1 1 2 2 2 2 2 2 2 3 4 3 4 6 8 8 8
2 2 2 2 3 3 4 5 5 4 4 3 3 3 2 1 1 1 2 3 3 2 2 1 1 1 1 1 1 1 1 1 1 1 2 2 2 3 4 4 9 11 10
1 2 2 2 2 3 3 4 5 4 4 4 3 3 3 3 2 2 2 4 3 3 3 1 2 2 1 1 1 2 1 1 1 1 1 2 2 2 3 4 11 12 11
1 2 2 2 1 2 3 4 5 4 4 4 3 2 2 2 3 3 3 3 2 1 2 2 2 2 2 1 2 2 2 2 2 2 2 1 2 2 2 3 9 12 11
1 2 2 2 1 2 2 3 3 4 3 4 3 2 1 1 2 3 3 3 3 2 2 2 3 3 3 4 3 1 2 1 1 2 1 2 2 1 1 2 5 11 11
2 2 2 2 2 2 2 2 2 3 3 3 2 1 1 1 1 2 2 3 3 3 3 2 3 4 4 5 5 4 2 2 1 1 1 1 1 0 1 1 3 4 6
Wind_Direction
344 315 293 301 293 304 297 291 286 290 295 301 304 303 309 322 326 351 168 177 172 178 199 212 222 230 228 224 230 230 227 222 221 222 221 221 224 226 224 224 220 217 214
353 314 299 315 321 324 319 297 301 298 295 291 295 303 318 314 340 326 277 196 186 193 210 220 227 230 230 227 232 226 222 225 221 222 223 220 223 228 226 225 223 221 216
337 316 309 314 337 313 301 300 307 309 297 295 299 302 299 307 318 308 305 246 196 176 197 211 216 225 232 233 231 225 218 218 220 223 225 219 218 226 232 231 229 223 214
333 319 328 350 325 309 315 303 311 318 311 310 312 297 295 286 275 269 271 265 204 165 161 181 197 209 222 229 226 225 220 214 220 222 221 215 216 222 228 230 230 226 218
340 328 334 333 309 322 329 324 351 326 312 316 296 278 285 297 288 308 313 288 236 147 155 171 183 179 189 216 213 213 212 209 212 217 216 215 217 221 223 224 226 225 219
345 331 312 339 320 332 337 344 331 315 297 293 302 312 291 252 229 285 301 320 337 111 134 151 159 156 171 199 195 189 189 184 191 211 217 215 213 213 223 227 226 220 217
343 329 337 330 319 325 330 325 321 317 310 312 313 312 293 259 203 192 261 304 321 21 68 49 55 103 130 154 151 132 150 168 173 195 215 210 211 219 229 233 227 221 219
346 339 355 335 328 321 316 309 310 304 302 313 319 311 301 289 348 303 243 234 127 51 63 10 54 59 59 124 114 115 111 133 167 175 190 177 208 228 227 230 224 221 220
3 356 347 343 333 329 322 323 332 311 304 305 294 280 294 307 330 310 320 355 54 27 41 129 146 131 104 76 85 78 83 79 130 177 184 182 211 231 231 230 227 224 223
359 358 347 350 338 332 332 326 345 318 307 308 307 288 274 281 281 303 314 351 5 13 3 351 31 85 84 93 97 94 91 93 125 151 139 182 241 232 234 228 229 223 223
315 349 350 343 334 332 330 325 327 320 310 307 309 310 304 284 256 252 284 310 324 333 352 344 329 114 102 118 139 115 100 106 123 129 130 171 221 228 235 245 240 225 223
258 350 354 347 334 320 318 320 317 306 303 308 309 304 294 293 282 264 270 274 282 296 312 300 270 152 145 114 114 116 115 129 130 129 129 139 178 255 267 264 247 228 228
317 20 353 331 320 317 314 326 309 310 315 310 290 281 277 266 261 251 244 263 277 283 275 277 254 181 142 112 120 131 138 150 156 167 167 170 190 228 245 264 245 231 225
338 353 314 319 322 319 326 329 307 314 320 303 295 292 279 267 268 253 234 233 258 268 253 252 253 175 111 119 173 173 155 159 169 173 176 181 193 208 214 212 215 214 208
296 349 329 329 319 323 331 324 317 322 321 301 295 298 289 277 272 263 244 228 231 266 262 242 238 199 165 149 177 201 175 176 179 181 180 181 184 192 189 177 174 176 197
350 324 325 323 325 324 332 327 321 323 322 308 293 294 298 287 283 268 249 251 242 236 257 237 233 197 208 215 210 229 196 181 188 185 187 191 189 187 181 183 183 177 176
326 321 322 321 324 329 337 323 323 327 322 323 323 325 317 315 314 299 293 271 256 236 238 260 235 206 214 229 227 230 209 196 192 194 200 199 192 188 190 189 189 186 180
305 317 321 322 327 353 344 332 339 346 336 334 336 339 330 315 322 317 324 314 295 256 220 237 233 218 228 228 229 232 224 210 180 194 200 201 196 193 192 190 189 192 191
337 332 337 338 348 354 347 347 355 358 343 335 331 327 323 324 326 324 323 317 304 292 236 229 246 235 233 230 232 247 239 227 205 186 195 200 200 198 196 193 193 194 192
302 316 344 336 358 3 360 5 4 350 340 335 330 326 324 328 330 326 321 326 322 313 282 246 243 229 234 234 226 243 240 236 235 191 184 189 196 201 201 197 198 198 198
304 354 354 351 10 14 12 11 350 341 341 331 332 337 339 352 9 341 339 342 334 307 290 271 253 241 235 236 242 249 240 234 232 198 180 194 185 193 203 206 205 202 201
4 6 1 359 358 10 28 16 355 330 322 319 318 314 307 302 356 318 307 300 298 307 318 311 308 288 268 250 268 270 261 260 249 193 175 225 195 191 198 195 194 195 199
360 349 337 343 5 6 0 352 344 320 305 299 297 298 314 349 354 325 301 289 269 253 243 257 286 282 298 331 308 292 289 274 263 230 197 245 217 205 201 188 179 187 194
329 318 310 315 334 343 337 328 326 306 294 296 300 302 302 332 351 344 318 312 309 282 230 218 261 292 314 316 286 272 266 268 262 254 213 226 239 225 200 161 182 188 194
292 292 284 280 298 313 311 309 317 307 303 307 301 321 323 359 4 351 325 311 313 308 243 220 232 263 274 276 273 288 291 287 285 271 232 207 229 231 208 179 191 197 201
269 273 286 273 268 285 295 283 288 292 305 309 304 297 20 10 4 353 313 304 303 305 314 299 260 253 248 246 237 225 239 251 268 270 250 219 240 255 278 216 187 190 208